Location: Drocourt
(49.0571°N, 1.7669°E)
Time: 02:36:25
(UTC+00:00)

Transit 4A - Pass Details

Date: 22 April 2024
Orbit: 871 x 971 km, 66.8° (Epoch: 19 May)

Event Time Altitude Azimuth Distance (km) Brightness Sun altitude
Rises 13:36:48 0° 242° (WSW) 3,521 11.5 47.4°
Reaches altitude 10° 13:39:29 10° 250° (WSW) 2,568 11.0 47.2°
Maximum altitude 13:45:01 39° 318° (NW) 1,310 9.1 46.6°
Drops below altitude 10° 13:50:28 10° 27° (NNE) 2,537 9.9 45.9°
Sets 13:53:08 0° 35° (NE) 3,473 10.5 45.6°
